Grand Junction, CO

3:01 PM MDT on June 26, 2017 (GMT -0600)
Walker

Weather History for KGJT - April, 2012

Change the Weather History Date:

Tuesday, April 3, 2012

  Actual Average Record
Temperature  
Mean Temperature 49 °F 48 °F  
Max Temperature 64 °F 62 °F 81 °F (1943)
Min Temperature 33 °F 35 °F 22 °F (1945)
Degree Days  
Heating Degree Days 16 17  
Month to date heating degree days 41 51  
Since 1 July heating degree days 4655 5083  
Cooling Degree Days 0 0  
Month to date cooling degree days 0 0  
Year to date cooling degree days 0 0  
Moisture  
Dew Point 26 °F    
Average Humidity 47    
Maximum Humidity 70    
Minimum Humidity 23    
Precipitation  
Precipitation 0.00 in 0.04 in 0.45 in (2009)
Month to date precipitation 0.05 0.10  
Year to date precipitation 1.05 2.14  
Snow  
Snow 0.00 in 0.10 in 2.20 in (1983)
Month to date snowfall T 0.2  
Since 1 July snowfall 8.2 18.3  
Snow Depth 0.00 in    
Sea Level Pressure  
Sea Level Pressure 29.90 in    
Wind  
Wind Speed 3 mph (NW)    
Max Wind Speed 10 mph    
Max Gust Speed 21 mph    
Visibility 10 miles    
Events      
T = Trace of Precipitation, MM = Missing Value Source: NWS Daily Summary

Daily Weather History Graph

Daily Weather History Graph

Search for Another Location

Airport or City:

Trip Planner

Search our weather history database for the weather conditions in past years. The results will help you decide how hot, cold, wet, or windy it might be!

Date:

Astronomy

Apr. 03, 2012 Rise Set
Actual Time 6:54 AM MDT 7:40 PM MDT
Civil Twilight 6:27 AM MDT 8:07 PM MDT
Nautical Twilight 5:55 AM MDT 8:39 PM MDT
Astronomical Twilight 5:22 AM MDT 9:12 PM MDT
Moon 4:28 PM MDT (4/3) 4:43 AM MDT (4/3)
Length of Visible Light 13h 39m
Length of Day
12h 45m
Waxing Gibbous, 87% of the Moon is Illuminated
Apr 3
Waxing Gibbous
Apr 6
Full
Apr 13
Last Quarter
Apr 21
New
Apr 29
First Quarter

Hourly Weather History & Observations

Time (MDT) Temp. Windchill Dew Point Humidity Pressure Visibility Wind Dir Wind Speed Gust Speed Precip Events Conditions
12:53 AM 41.0 °F - 28.9 °F 62% 29.94 in 10.0 mi Calm Calm - N/A   Clear
1:53 AM 39.0 °F 34.0 °F 28.0 °F 65% 29.95 in 10.0 mi WNW 6.9 mph - N/A   Mostly Cloudy
2:53 AM 37.0 °F 34.5 °F 27.0 °F 67% 29.96 in 10.0 mi NW 3.5 mph - N/A   Partly Cloudy
3:53 AM 36.0 °F - 27.0 °F 70% 29.94 in 10.0 mi Calm Calm - N/A   Clear
4:53 AM 37.0 °F - 26.1 °F 65% 29.92 in 10.0 mi Calm Calm - N/A   Clear
5:53 AM 35.1 °F - 26.1 °F 70% 29.93 in 10.0 mi Calm Calm - N/A   Clear
6:53 AM 35.1 °F 32.2 °F 26.1 °F 70% 29.93 in 10.0 mi ENE 3.5 mph - N/A   Clear
7:53 AM 39.9 °F 37.8 °F 26.1 °F 58% 29.94 in 10.0 mi West 3.5 mph - N/A   Clear
8:53 AM 42.1 °F - 28.0 °F 58% 29.95 in 10.0 mi Calm Calm - N/A   Clear
9:53 AM 46.0 °F - 28.0 °F 50% 29.95 in 10.0 mi Calm Calm - N/A   Clear
10:53 AM 50.0 °F - 27.0 °F 41% 29.96 in 10.0 mi Calm Calm - N/A   Clear
11:53 AM 52.0 °F - 27.0 °F 38% 29.95 in 10.0 mi Variable 4.6 mph - N/A   Clear
12:53 PM 55.0 °F - 26.1 °F 33% 29.92 in 10.0 mi SE 4.6 mph - N/A   Clear
1:53 PM 57.9 °F - 26.1 °F 30% 29.89 in 10.0 mi South 8.1 mph - N/A   Clear
2:53 PM 59.0 °F - 26.1 °F 28% 29.88 in 10.0 mi Variable 4.6 mph - N/A   Clear
3:53 PM 60.1 °F - 26.1 °F 27% 29.86 in 10.0 mi Calm Calm - N/A   Clear
4:53 PM 63.0 °F - 25.0 °F 24% 29.83 in 10.0 mi Variable 3.5 mph - N/A   Clear
5:53 PM 62.1 °F - 24.1 °F 23% 29.82 in 10.0 mi Variable 5.8 mph - N/A   Clear
6:53 PM 60.1 °F - 25.0 °F 26% 29.83 in 10.0 mi West 5.8 mph - N/A   Clear
7:53 PM 55.9 °F - 25.0 °F 30% 29.83 in 10.0 mi NW 3.5 mph - N/A   Clear
8:53 PM 48.9 °F - 23.0 °F 36% 29.86 in 10.0 mi NW 3.5 mph - N/A   Clear
9:53 PM 46.0 °F - 26.1 °F 46% 29.90 in 10.0 mi Calm Calm - N/A   Clear
10:53 PM 41.0 °F 39.0 °F 24.1 °F 51% 29.90 in 10.0 mi East 3.5 mph - N/A   Clear
11:53 PM 45.0 °F 42.6 °F 27.0 °F 49% 29.88 in 9.0 mi ENE 4.6 mph - N/A   Clear